Weather History for Santa Ynez, CA

Change the Weather History Date:

Sunday, December 30, 2012

  Actual Average (KSBA) Record (KSBA)
Temperature  
Mean Temperature 42 °F 52 °F  
Max Temperature 55 °F 63 °F 83 °F (1980)
Min Temperature 28 °F 40 °F 29 °F (1969)
Degree Days  
Heating Degree Days 24 14  
Month to date heating degree days 396  
Since 1 July heating degree days 874  
Cooling Degree Days 0 0  
Month to date cooling degree days 0  
Year to date cooling degree days 188  
Moisture  
Dew Point 33 °F    
Average Humidity 73    
Maximum Humidity 100    
Minimum Humidity 41    
Precipitation  
Precipitation 0.00 in 0.13 in 0.89 in (1952)
Month to date precipitation 2.81  
Year to date precipitation 17.63  
Since 1 July precipitation 5.58  
Sea Level Pressure  
Sea Level Pressure 30.03 in    
Wind  
Wind Speed 2 mph (NW)    
Max Wind Speed 12 mph    
Max Gust Speed -    
Visibility 9 miles    
Events Fog    
T = Trace of Precipitation, MM = Missing Value Source: NWS Daily Summary

Daily Weather History Graph

Daily Weather History Graph

Search for Another Location

Airport:

Trip Planner

Search our weather history database for the weather conditions in past years. The results will help you decide how hot, cold, wet, or windy it might be!

Date:

Astronomy

Dec. 30, 2012 Rise Set
Actual Time 7:06 AM PST 4:59 PM PST
Civil Twilight 6:39 AM PST 5:27 PM PST
Nautical Twilight 6:07 AM PST 5:58 PM PST
Astronomical Twilight 5:36 AM PST 6:29 PM PST
Moon 7:28 PM PST 8:24 AM PST
Length of Visible Light 10h 48m
Length of Day
9h 52m
Waning Gibbous, 95% of the Moon is Illuminated
Dec 30
Waning Gibbous
Jan 4
Last Quarter
Jan 11
New
Jan 18
First Quarter
Jan 26
Full

Hourly Weather History & Observations

Time (PST) Temp. Windchill Dew Point Humidity Pressure Visibility Wind Dir Wind Speed Gust Speed Precip Events Conditions
12:15 AM 33.8 °F - 32.0 °F 93% 30.05 in 2.5 mi Calm Calm - N/A   Clear
12:35 AM 33.8 °F - 32.0 °F 93% 30.04 in 10.0 mi Calm Calm - N/A   Clear
12:55 AM 33.8 °F - 32.0 °F 93% 30.04 in 10.0 mi Calm Calm - N/A   Clear
1:15 AM 32.0 °F - 32.0 °F 100% 30.04 in 10.0 mi Calm Calm - N/A   Clear
5:35 AM 30.2 °F 26.7 °F 30.2 °F 100% 30.01 in 10.0 mi East 3.5 mph - N/A   Clear
5:55 AM 30.2 °F - 28.4 °F 93% 30.01 in 10.0 mi Calm Calm - N/A   Scattered Clouds
6:15 AM 30.2 °F - 30.2 °F 100% 30.01 in 10.0 mi Calm Calm - N/A   Scattered Clouds
6:35 AM 30.2 °F - 28.4 °F 93% 30.01 in 10.0 mi Calm Calm - N/A   Clear
6:55 AM 30.2 °F - 30.2 °F 100% 30.01 in 10.0 mi Calm Calm - N/A   Clear
7:15 AM 28.4 °F - 28.4 °F 100% 30.02 in 1.0 mi Calm Calm - N/A   Mist
7:35 AM 28.4 °F - 28.4 °F 100% 30.02 in 0.2 mi Calm Calm - N/A Fog Light Freezing Fog
7:55 AM 30.2 °F - 30.2 °F 100% 30.02 in 1.0 mi Calm Calm - N/A   Mostly Cloudy
8:15 AM 32.0 °F - 30.2 °F 93% 30.03 in 10.0 mi Calm Calm - N/A   Clear
8:35 AM 32.0 °F - 32.0 °F 100% 30.04 in 10.0 mi Calm Calm - N/A   Clear
8:55 AM 32.0 °F - 32.0 °F 100% 30.05 in 0.2 mi Calm Calm - N/A Fog Fog
9:15 AM 32.0 °F - 32.0 °F 100% 30.05 in 0.5 mi Calm Calm - N/A Fog Fog
9:35 AM 35.6 °F - 35.6 °F 100% 30.05 in 5.0 mi Calm Calm - N/A   Mostly Cloudy
9:55 AM 37.4 °F - 35.6 °F 93% 30.05 in 10.0 mi Calm Calm - N/A   Scattered Clouds
10:15 AM 39.2 °F - 37.4 °F 93% 30.05 in 10.0 mi Calm Calm - N/A   Scattered Clouds
10:35 AM 41.0 °F - 39.2 °F 93% 30.04 in 10.0 mi Calm Calm - N/A   Clear
10:55 AM 42.8 °F - 39.2 °F 87% 30.03 in 10.0 mi Calm Calm - N/A   Clear
11:15 AM 42.8 °F 41.1 °F 37.4 °F 81% 30.03 in 10.0 mi West 3.5 mph - N/A   Clear
11:35 AM 44.6 °F - 37.4 °F 76% 30.02 in 10.0 mi Calm Calm - N/A   Clear
11:55 AM 44.6 °F 43.1 °F 39.2 °F 81% 30.00 in 10.0 mi South 3.5 mph - N/A   Clear
12:15 PM 48.2 °F - 41.0 °F 76% 29.99 in 10.0 mi West 6.9 mph - N/A   Clear
12:35 PM 50.0 °F - 41.0 °F 71% 29.98 in 10.0 mi WSW 4.6 mph - N/A   Clear
12:55 PM 51.8 °F - 37.4 °F 58% 29.98 in 10.0 mi West 3.5 mph - N/A   Clear
1:15 PM 53.6 °F - 35.6 °F 51% 29.97 in 10.0 mi WNW 10.4 mph - N/A   Clear
1:35 PM 53.6 °F - 33.8 °F 47% 29.96 in 10.0 mi NW 10.4 mph - N/A   Clear
1:55 PM 55.4 °F - 33.8 °F 44% 29.96 in 10.0 mi NW 9.2 mph - N/A   Mostly Cloudy
2:15 PM 53.6 °F - 32.0 °F 44% 29.96 in 10.0 mi NE 6.9 mph - N/A   Overcast
2:35 PM 53.6 °F - 32.0 °F 44% 29.96 in 10.0 mi NNE 6.9 mph - N/A   Overcast
2:55 PM 55.4 °F - 32.0 °F 41% 29.95 in 10.0 mi NNE 10.4 mph - N/A   Scattered Clouds
3:15 PM 53.6 °F - 32.0 °F 44% 29.96 in 10.0 mi North 9.2 mph - N/A   Scattered Clouds
3:35 PM 53.6 °F - 32.0 °F 44% 29.97 in 10.0 mi NNW 11.5 mph - N/A   Scattered Clouds
3:55 PM 53.6 °F - 32.0 °F 44% 29.97 in 10.0 mi North 6.9 mph - N/A   Mostly Cloudy
4:15 PM 51.8 °F - 32.0 °F 47% 29.98 in 10.0 mi NNE 6.9 mph - N/A   Scattered Clouds
4:35 PM 51.8 °F - 32.0 °F 47% 29.98 in 10.0 mi NNE 3.5 mph - N/A   Clear
4:55 PM 50.0 °F - 32.0 °F 50% 29.99 in 10.0 mi North 3.5 mph - N/A   Clear
5:15 PM 50.0 °F - 32.0 °F 50% 30.00 in 10.0 mi NNW 3.5 mph - N/A   Mostly Cloudy
5:35 PM 48.2 °F - 32.0 °F 54% 30.01 in 10.0 mi NNW 4.6 mph - N/A   Overcast
5:55 PM 48.2 °F - 32.0 °F 54% 30.02 in 10.0 mi Calm Calm - N/A   Mostly Cloudy
6:15 PM 44.6 °F 40.2 °F 32.0 °F 61% 30.03 in 10.0 mi West 8.1 mph - N/A   Scattered Clouds
6:35 PM 44.6 °F 42.2 °F 32.0 °F 61% 30.03 in 10.0 mi West 4.6 mph - N/A   Scattered Clouds
6:55 PM 44.6 °F 40.7 °F 32.0 °F 61% 30.04 in 10.0 mi WNW 6.9 mph - N/A   Scattered Clouds
7:15 PM 44.6 °F 42.2 °F 32.0 °F 61% 30.04 in 10.0 mi NW 4.6 mph - N/A   Clear
7:35 PM 44.6 °F 40.2 °F 32.0 °F 61% 30.04 in 10.0 mi NNW 8.1 mph - N/A   Clear
7:55 PM 44.6 °F 40.7 °F 32.0 °F 61% 30.05 in 10.0 mi NNW 6.9 mph - N/A   Clear
8:15 PM 44.6 °F 43.1 °F 32.0 °F 61% 30.06 in 10.0 mi WSW 3.5 mph - N/A   Clear
8:35 PM 41.0 °F 39.0 °F 33.8 °F 76% 30.06 in 10.0 mi SW 3.5 mph - N/A   Clear
8:55 PM 41.0 °F 38.0 °F 32.0 °F 70% 30.07 in 10.0 mi West 4.6 mph - N/A   Clear
9:15 PM 44.6 °F 39.7 °F 32.0 °F 61% 30.07 in 10.0 mi WNW 9.2 mph - N/A   Clear
9:35 PM 44.6 °F 42.2 °F 32.0 °F 61% 30.08 in 10.0 mi NNW 4.6 mph - N/A   Clear
9:55 PM 44.6 °F 42.2 °F 32.0 °F 61% 30.08 in 10.0 mi North 4.6 mph - N/A   Clear
10:15 PM 44.6 °F 43.1 °F 32.0 °F 61% 30.08 in 10.0 mi WSW 3.5 mph - N/A   Clear
10:35 PM 42.8 °F 39.3 °F 32.0 °F 66% 30.09 in 10.0 mi NNW 5.8 mph - N/A   Clear
10:55 PM 41.0 °F 39.0 °F 32.0 °F 70% 30.10 in 10.0 mi WSW 3.5 mph - N/A   Clear
11:15 PM 41.0 °F 36.4 °F 32.0 °F 70% 30.11 in 10.0 mi WSW 6.9 mph - N/A   Clear
11:35 PM 37.4 °F 32.8 °F 32.0 °F 81% 30.12 in 10.0 mi WSW 5.8 mph - N/A   Clear
11:55 PM 37.4 °F - 32.0 °F 81% 30.14 in 10.0 mi Calm Calm - N/A   Clear